Buffalo, NY

9:29 AM EDT on October 21, 2019 (GMT -0400)
Buffalo Niagara International

Weather History for KBUF - August, 2019

Change the Weather History Date:

Thursday, August 1, 2019

  Actual Average Record
Temperature  
Mean Temperature 72 °F 71 °F  
Max Temperature 83 °F 80 °F 95 °F (1944)
Min Temperature 60 °F 62 °F 47 °F (1947)
Degree Days  
Heating Degree Days 0 0  
Month to date heating degree days 0 0  
Since 1 June heating degree days 62 73  
Since 1 July heating degree days 0 9  
Cooling Degree Days 7 6  
Month to date cooling degree days 7 6  
Year to date cooling degree days 375 332  
Since 1 June cooling degree days 367 306  
Growing Degree Days 21 (Base 50)    
Moisture  
Dew Point 55 °F    
Average Humidity 62    
Maximum Humidity 84    
Minimum Humidity 39    
Precipitation  
Precipitation 0.00 in 0.11 in 2.39 in (1922)
Month to date precipitation 0.00 0.11  
Year to date precipitation 24.75 22.01  
Snow  
Snow 0.00 in 0.00 in 0.00 in ()
Month to date snowfall 0.0 0.0  
Since 1 June snowfall 0.0 0.0  
Since 1 July snowfall 0.0 0.0  
Snow Depth 0.00 in    
Sea Level Pressure  
Sea Level Pressure 30.14 in    
Wind  
Wind Speed 5 mph (ENE)    
Max Wind Speed 16 mph    
Max Gust Speed 20 mph    
Visibility 10 miles    
Events      
T = Trace of Precipitation, MM = Missing Value Source: NWS Daily Summary

Daily Weather History Graph

Daily Weather History Graph

Search for Another Location

Airport or City:

Astronomy

Aug. 01, 2019 Rise Set
Actual Time 6:05 AM EDT 8:36 PM EDT
Civil Twilight 5:33 AM EDT 9:08 PM EDT
Nautical Twilight 4:53 AM EDT 9:48 PM EDT
Astronomical Twilight 4:07 AM EDT 10:33 PM EDT
Moon 6:27 AM EDT (8/1) 9:21 PM EDT (8/1)
Length of Visible Light 15h 34m
Length of Day
14h 30m
New Moon, 0% of the Moon is Illuminated
Aug 1
New Moon
Aug 7
First Quarter
Aug 15
Full
Aug 23
Last Quarter
Aug 30
New

Hourly Weather History & Observations

Time (EDT) Temp. Heat Index Dew Point Humidity Pressure Visibility Wind Dir Wind Speed Gust Speed Precip Events Conditions
12:54 AM 68.0 °F - 57.0 °F 68% 30.10 in 10.0 mi Calm Calm - N/A   Clear
1:54 AM 66.0 °F - 57.0 °F 73% 30.11 in 10.0 mi Calm Calm - N/A   Partly Cloudy
2:54 AM 64.9 °F - 57.9 °F 78% 30.13 in 10.0 mi Calm Calm - N/A   Partly Cloudy
3:54 AM 63.0 °F - 57.0 °F 81% 30.12 in 10.0 mi SSW 3.5 mph - N/A   Partly Cloudy
4:54 AM 62.1 °F - 55.9 °F 80% 30.13 in 10.0 mi SSE 3.5 mph - N/A   Partly Cloudy
5:54 AM 60.1 °F - 55.9 °F 86% 30.13 in 10.0 mi Calm Calm - N/A   Partly Cloudy
6:54 AM 61.0 °F - 55.9 °F 83% 30.14 in 10.0 mi SSE 3.5 mph - N/A   Partly Cloudy
7:54 AM 64.0 °F - 57.0 °F 78% 30.15 in 10.0 mi South 3.5 mph - N/A   Scattered Clouds
8:54 AM 68.0 °F - 59.0 °F 73% 30.16 in 10.0 mi Calm Calm - N/A   Mostly Cloudy
9:54 AM 72.0 °F - 60.1 °F 66% 30.17 in 10.0 mi NE 5.8 mph - N/A   Mostly Cloudy
10:54 AM 75.0 °F - 61.0 °F 62% 30.17 in 10.0 mi Calm Calm - N/A   Mostly Cloudy
11:54 AM 79.0 °F - 55.9 °F 45% 30.17 in 10.0 mi North 5.8 mph - N/A   Scattered Clouds
12:54 PM 79.0 °F - 55.0 °F 44% 30.17 in 10.0 mi North 8.1 mph - N/A   Scattered Clouds
1:54 PM 80.1 °F 80.2 °F 55.9 °F 43% 30.16 in 10.0 mi NNE 6.9 mph - N/A   Scattered Clouds
2:54 PM 81.0 °F 80.7 °F 55.0 °F 41% 30.15 in 10.0 mi Variable 4.6 mph - N/A   Scattered Clouds
3:54 PM 80.1 °F 80.0 °F 54.0 °F 40% 30.13 in 10.0 mi Calm Calm - N/A   Partly Cloudy
4:54 PM 80.1 °F 79.9 °F 53.1 °F 39% 30.12 in 10.0 mi NNE 4.6 mph - N/A   Partly Cloudy
5:54 PM 79.0 °F - 55.9 °F 45% 30.12 in 10.0 mi North 12.7 mph 17.3 mph N/A   Scattered Clouds
6:54 PM 77.0 °F - 54.0 °F 45% 30.12 in 10.0 mi NNE 12.7 mph - N/A   Partly Cloudy
7:54 PM 75.0 °F - 51.1 °F 43% 30.13 in 10.0 mi NNE 8.1 mph - N/A   Partly Cloudy
8:54 PM 71.1 °F - 52.0 °F 51% 30.13 in 10.0 mi NE 6.9 mph - N/A   Partly Cloudy
9:54 PM 71.1 °F - 51.1 °F 49% 30.14 in 10.0 mi East 4.6 mph - N/A   Partly Cloudy
10:54 PM 69.1 °F - 51.1 °F 53% 30.14 in 10.0 mi ESE 6.9 mph - N/A   Partly Cloudy
11:54 PM 66.9 °F - 52.0 °F 59% 30.15 in 10.0 mi ESE 5.8 mph - N/A   Clear